Find FAISAT-2V

NORAD ID: 24954 Int'l Des: 1997-052 Owner: FACS Country: US operational
LEOCIRCULARPOLAR

Live Position

Loading 3D Globe...

About FAISAT-2V

Description loading...

Upcoming Passes

Passes for default location (London). Set your location on the main map for personalized predictions.

Altitude History

Loading altitude history...

Two-Line Element Set

1 24954U 97052B 26105.90800959 .00000059 00000-0 40757-4 0 9992
2 24954 82.9259 30.8505 0040377 125.6561 310.7789 13.80364823438412
Epoch: Apr 15, 2026 • Age: 6 hours

Current Status

Altitude 942.5 km
Velocity 7.39 km/s
Sub-Earth Point 13.50°N, 46.98°W
Launch Date Sep 23, 1997
Age 28.5 years
Type other

Technical Details

Classification Payload
Mass 114.00 kg
Dry Mass 114.00 kg
Total Mass 114.00 kg
Length 1.10 m
Diameter 0.60 m
Span 6.00 m
Shape Oct Cyl + Ant
Manufacturer POL
Bus Type 21KF2
Phase Status Unknown Transfer Status
Owner/State FACS/US

Most Searched